Flag for Canada Weather past 2 weeks in Welland, Ontario, Canada

Now
59 °F

Cool.


Feels Like: 58 °F
Forecast: 56 / 72 °F
Wind: 7 mph from East

Location: Port Colborne Airport

Current Time: Oct 2, 2014 at 2:47:26 AM

Latest Report: Oct 2, 2014 at 2:00 AM


Visibility: N/A

Pressure: 30.08 "Hg

Humidity: 91%

Dew point: 56 °F

Location of WellandLocation

Historic Weather in Welland — Graph

°F

Welland temperature yesterday

Maximum temperature yesterday: 70 °F (at 5:00 PM)
Minimum temperature yesterday: 56 °F (at 12:00 AM)
Average temperature yesterday: 61 °F

Past Weeks' High & Low Weather Summary

 TemperatureHumidityPressure
High73 °F (Sep 27, 7:00 PM)99% (Oct 1, 12:00 AM)30.22 "Hg (Oct 1, 12:00 AM)
Low56 °F (Oct 1, 12:00 AM)41% (Sep 27, 7:00 PM)29.87 "Hg (Sep 30, 4:00 AM)
Average64 °F81%30.02 "Hg
* Reported Sep 17 1:00 AM — Oct 2 1:00 AM, Welland, Weather by CustomWeather, © 2014

Note: Actual official high and low records may vary slightly from our data, if they occured in-between our weather recording intervals... More about our weather records

Advertising

Welland weather history for previous 24 hours

 ConditionsComfort  
Time TempWeatherWind HumidityBarometerVisibility
1:00 AM
Oct 2
59 °FCool.7 mph91%30.08 "HgN/A
12:00 AM60 °FCool.8 mph91%30.08 "HgN/A
11:00 PM
Oct 1
60 °FCool.9 mph91%30.07 "HgN/A
10:00 PM61 °FCool.10 mph89%30.08 "HgN/A
9:00 PM61 °FCool.15 mph84%30.07 "HgN/A
8:00 PM62 °FCool.15 mph89%30.06 "HgN/A
7:00 PM62 °FMild.14 mph87%30.05 "HgN/A
6:00 PM67 °FMild.10 mph71%30.03 "HgN/A
5:00 PM70 °FMild.2 mph66%30.03 "HgN/A
4:00 PM67 °FMild.6 mph72%30.04 "HgN/A
3:00 PM66 °FMild.8 mph72%30.04 "HgN/A
2:00 PM65 °FMild.10 mph76%30.06 "HgN/A
1:00 PM63 °FMild.7 mph80%30.08 "HgN/A
12:00 PM62 °FMild.7 mph81%30.08 "HgN/A
11:00 AM62 °FCool.6 mph84%30.08 "HgN/A
10:00 AM60 °FCool.13 mph86%30.08 "HgN/A
9:00 AM59 °FCool.9 mph89%30.07 "HgN/A
8:00 AM58 °FCool.10 mph91%30.05 "HgN/A
7:00 AM58 °FCool.10 mph90%30.04 "HgN/A
6:00 AM58 °FCool.10 mph90%30.02 "HgN/A
5:00 AM59 °FCool.12 mph89%30.02 "HgN/A
4:00 AM59 °FCool.10 mph90%30.01 "HgN/A
3:00 AM59 °FCool.13 mph90%30.01 "HgN/A
2:00 AM60 °FCool.13 mph91%30.00 "HgN/A
Weather by CustomWeather, © 2014

See weather overviewHow to use our weather pages